Погода в Лангшоне

Вьетнам     21°51′20″N   106°46′06″E
темп.,
°C
ветер,
м/с
пор.,
м/с
влажн.,
%
обл.,
%
осадки,
мм/ч
давл.,
гПа
погр.,
м
26 января, вт
вт2601:00+17юв128789 0.3 101624
04:00+16юв128860 0.1 101646
07:00+17всв118880 0.2 101828
10:00+18всв1283100 0.4 1020254
13:00+21св2369100 0.8 1016636
16:00+20всв1274100 0.1 1014135
19:00+18юв277584 0.1 1015216
22:00+16юв118323 0.0 101623
27 января, ср
ср2701:00+15юв118811 0.0 101523
04:00+14юв11910 0.0 101623
07:00+14вюв119224 0.0 101624
10:00+22ююв366148 0.0 10181059
13:00+23ююз355566 0.0 10151283
16:00+25юз354945 0.0 10141431
19:00+19юв367543 0.0 1015301
22:00+16юв12916 0.0 101733
28 января, чт
чт2801:00+15вюв11933 0.0 101824
04:00+16в128841 0.0 101972
07:00+16св248870 0.1 1022248
10:00+15с4685100 0.1 1024481
13:00+15ссв4776100 0.2 1023666
16:00+14ссв4777100 0.1 1022660
19:00+13ссв4773100 0.3 1024494
22:00+13ссв3770100 0.0 1025496
29 января, пт
пт2901:00+12ссв3664100 0.0 1025451
04:00+12ссв3663100 0.0 1023415
07:00+12ссв3561100 0.0 1025413
10:00+13ссв2354100 0.0 1026394
13:00+19юв134693 0.0 1023928
16:00+21ююз34440 0.0 10201463
19:00+15ююв23591 0.0 102174
22:00+13ююв11630 0.0 102224
30 января, сб
сб3001:00+12ююв12710 0.0 102134
04:00+13юв137451 0.0 1020158
07:00+14юв168375 0.0 1022356
10:00+16юв2677100 0.0 1023568
13:00+17ююв3674100 0.1 1021725
16:00+17юв357599 0.0 1019622
19:00+14вюв229167 0.0 102043
22:00+13юв22946 0.0 102295